Historyczne dane pomiarowe

Dodano dane terminowe – wersja testowa.

Dane z okresu 1951-2019

Wersja bazy: 1.34 [2019-03-16, lista zmian], aktualizacja planowana na 2019-04-15

Dane meteo z obszaru Polski uzyskane na podstawie danych udostępnionych przez Instytut Meteorologii i Gospodarki Wodnej – Państwowy Instytut Badawczy.

 

Wybierz Datę:    

       

TemperaturaWilgotnośćZachmurzenieWiatrCiśnienieWidzialnośćZjawiska
 Data    tng td wb rh cc ccl cl cm ch dir g1 g2 mslp ppp      
1973-05-04 00:00:00 6.0--- 2.6 4.378wxwx7wx--- 835.0 0.0---wx
1973-05-04 01:00:00 5.7------wxwx8wx--- 835.0----wx
1973-05-04 02:00:00 5.2------wxwx5wx--- 835.5----wx
1973-05-04 03:00:00 5.9--- 1.9 3.975wxwxwx4wx--- 835.6----wx
1973-05-04 04:00:00 6.0------wxwxwx4wx--- 835.8----wx
1973-05-04 05:00:00 6.7------wxwxwx9wx--- 836.2----wx
1973-05-04 06:00:00 6.6--- 3.8 5.281wxwxwx8wx--- 836.5 0.0---wx
1973-05-04 07:00:00 7.2------wxwxwx7wx--- 837.1----wx
1973-05-04 08:00:00 7.6------wxwxwxwx3wx--- 837.6----wx
1973-05-04 09:00:00 8.0--- 6.1 7.087wxwxwx4wx--- 838.0----wx
1973-05-04 10:00:00 8.8------wxwxwx4wx--- 838.4----wx
1973-05-04 11:00:00 8.8------wxwxwx6wx--- 838.5----wx
1973-05-04 12:00:00 10.0--- 7.3 8.482wxwxwx5wx--- 838.8 0.0---wx
1973-05-04 13:00:00 9.8------wxwxwx7wx--- 839.1----wx
1973-05-04 14:00:00 11.4------wxwxwx5wx--- 839.3----wx
1973-05-04 15:00:00 11.0--- 7.1 8.877wxwxwxwx6wx--- 839.0----wx
1973-05-04 16:00:00 11.4------wxwxwxwx6wx--- 839.2----wx
1973-05-04 17:00:00 11.0------wxwxwxwx7wx--- 839.3----wx
1973-05-04 18:00:00 10.6--- 6.7 8.477wxwxwxwx8wx--- 839.7 0.0---wx
1973-05-04 19:00:00 10.9------wxwxwx8wx--- 840.4----wx
1973-05-04 20:00:00 10.1------wxwxwxwx9wx--- 840.4----wxw1
1973-05-04 21:00:00 10.8--- 6.1 8.272wxwxwx10wx--- 840.5----wxw1
1973-05-04 22:00:00 10.7------wxwxwx12wx--- 840.8----wxw1
1973-05-04 23:00:00 10.3------wxwxwx11wx--- 841.3----wxw1

 

Źródłem pochodzenia danych jest Instytut Meteorologii i Gospodarki Wodnej – Państwowy Instytut Badawczy. Dane Instytutu Meteorologii i Gospodarki Wodnej – Państwowego Instytutu Badawczego zostały przetworzone.

Dane źródłowe można odnaleźć na stronie https://dane.imgw.pl